CZ-2C R/B, 43610

Orbit data source: Space-Track

CZ-2C R/B, 43610 is space debris in SSO originally from a launch on Fri, 07 Sep 2018 UTC launched from the Taiyaun Space Center, China (TSC). Debris objects in space refer to the collection of defunct objects orbiting the Earth. Examples of debris include non-operational satellites, rocket bodies, and fragments generated from explosions, collisions, or faulty payload assembly.

Loading next visibility...
Identifier
43610, 2018-068B
Orbit
SSO
Last TLE update
8 hours ago
Origin
Manufacturer
CALT
Mission
Spacecraft
Bus & Motor
CZ-2 STAGE 2, Unknown motor
Mass
~3,800 kg wet, ~3,800 kg dry
Launch date (UTC)
2018-09-07 (7 years ago)
Launch vehicle
Unknown
Launch site
Taiyaun Space Center, China (TSC)
Object type
Payload
Rocket body
Debris
Shape & HBR
Cyl, 7.49 m
Radar Cross Section
23.715 m², Large (>1 m²)

Expand to show TLE details & history

TLE from 8 hours ago
0 CZ-2C R/B
1 43610U 18068B   25130.51747841  .00000569  00000-0  13382-3 0  9995
2 43610  98.7305 312.1625 0087908 139.3665 221.4135 14.56204184354288
Epoch: 2025-05-10T12:25Z
Definitive object data (Epoch: 2025-05-10T12:25:10.134Z)
Latitude
-0.0001°
Longitude
-102.68784°
Altitude
755.368 km
Speed
7.452 km/s
True Right ascension
20h 48m 39s
True Declination
0° 00' 00"
Sunlit
Object was in daylight at TLE epoch
Visualization TLE readout
Latitude
-29.30037°
Longitude
-97.41695°
Altitude
777.262 km
Speed
7.432 km/s
Apparent Right ascension
19h 16m 05s
Apparent Declination
-38° 49' 29"
Sunlit
Object is in daylight
Visualization observer readout
Local Sidereal Time
04:46:44
Azimuth
259.991° W
Elevation
-61.327°
Doppler factor
1
Orbital elements
Apogee altitude
764.813 km
Perigee altitude
640.323 km
Semi-major axis
7,080.705 km
Eccentricity
0.0087908
Inclination
98.7305°
RAAN
312.1625°
Arg. of periapsis
139.3665°
True anomaly
220.75261°
Mean anomaly
221.4135°
Eccentric anomaly
221.08251°
Mean motion
3.64274 °/min
BSTAR
0.00013382
Orbital period
98.83 mins
Loading maneuver chart data...
Loading SW <> Apogee altitude chart data...
Loading historical data...
Loading historical data...
Loading historical data...
Loading historical data...
Loading historical data...
Loading historical data...
Loading historical data...
Other satellites on launch #68 in the year 2018 (2018-09-07 UTC)

CZ-2C R/B Visibility forecast

Observer location: undefined°, undefined°

Span
Click to sort rows by Start time (UTC) header in descending order
Start Az.
Max El. time (UTC)
Max El. Az.
Max El.
End time (UTC)
End Az.
7 mins2025-05-11 00:32:39.092Z30.8° NE2025-05-11 00:36:39.092Z116.901° SE33.644°2025-05-11 00:39:39.092Z168.064° S
7 mins2025-05-11 11:38:39.092Z141.509° SSE2025-05-11 11:41:39.092Z85.025° E37.763°2025-05-11 11:45:39.092Z0.068° NNE
4 mins2025-05-11 13:18:39.092Z248.571° W2025-05-11 13:19:39.092Z262.948° W15.388°2025-05-11 13:22:39.092Z303.117° NW
|